Погода в Бирзаи

Поиск расширенной информации на нашем сайте:

Полезная информация:

Новости сайта



02.01.2020
Опубликован Долгосрочный прогноз погоды по городам России и ближнего зарубежья на январь 2020 года.
Карты: Прогноз на январь и февраль 2020 года, Сравнение прогнозируемой аномалии приземной температуры воздуха на январь 2020 года по разным моделям.




Погода в Бирзаи - сегодня

Время (UTC), дата Ветер
(°,м/с) 
Видим.   Явления Облачность Т
(°С)
Тd
(°С)
f(%) Тe
(°С)
Pmin
(гПа)
dP
(гПа)
Po
(мм)
O2
(г/м3)
Тmin Tmax R s Состояние
почвы
15 19.10.20 280 (З) 4-8{15}  20000 м    6/6 1500 м 
[Sc]
+7.2 +0.3 61 +6  1012.1  1.6  753  296           
18 19.10.20 270 (З) 3-6{09}  20000 м    3/3 1260 м 
[Sc]
+4.9 +0.6 74 +4  1013.5  1.4  754  299    +9.4  0.0     
21 19.10.20 250 (З) 2-4{09}  20000 м    3/3 1500 м 
[Sc]
+3.1 +0.2 81 +3  1015  1.4  755  301           
00 20.10.20 250 (З) 2-4{06}  20000 м    ясно 
+1.3 -0.5 88 +1  1015.7  0.7  756  303           
03 20.10.20 260 (З) 2-5{06}  20000 м    ясно 
+1.7 -0.5 85 +1  1017.3  1.6  757  303           
06 20.10.20 280 (З) 2-4{06}  19000 м    6/6 840 м 
[Sc]
+2.6 +0 83 +2  1019.6  2.3  759  303  +1.2        влажная 
09 20.10.20 280 (З) 2-5{06}  20000 м    8/1 1000 м верхняя 
[Sc|Cs]
+6.7 +1.9 71 +7  1021.6  2.1  761  299           
12 20.10.20 270 (З) 3-5{06}  20000 м    10/0 верхняя 
[Cs]
+8.3 +1.2 61 +8  1022.2  0.6  761  297           
15 20.10.20 тихо () -2{06}  12000 м    10/0 средняя, верхняя 
[Ac As|Cs]
+5.8 +1.6 74 +6  1022  -0.3  761  300           
18 20.10.20 тихо () -2{03}  19000 м    8/0 средняя 
[Ac As]
+4.1 +2 86 +4  1021  -1  760  301    +8.5       
21 20.10.20 160 (Ю) 2-4{04}  20000 м    10/0 средняя 
[Ac As]
+5.2 +3.3 88 +5  1019.3  -1.7  759  299           
00 21.10.20 140 (ЮВ) 3-5{07}  20000 м    10/0 средняя 
[Ac As]
+5.7 +4 89 +5  1016.4  -2.8  757  298           
03 21.10.20 140 (ЮВ) 3-5{06}  10 км  слаб. дождь  10/10 300 м 
[Frnb|Ns]
+5.9 +4.8 93 +5  1013.2  -3.2  754  297           
06 21.10.20 150 (ЮВ) 2-5{08}  20000 м  {дождь}  10/0 средняя 
[Ac As]
+6 +4.7 91 +6  1012.1  -1.1  753  296  +4      влажная 
09 21.10.20 200 (Ю) 2-5{05}  16000 м    10/10 420 м 
[St]
+7.7 +5.9 88 +8  1012.2  0.2  754  294           
12 21.10.20 220 (ЮЗ) 2-4{07}  11000 м    10/10 420 м 
[St]
+8.9 +6.6 85 +9  1012  -0.2  753  293           
15 21.10.20 190 (Ю) 1-3{05}  8000 м  дымка  10/10 660 м 
[Sc]
+9.2 +7.2 87 +10  1012.2  0.2  754  293           
18 21.10.20 160 (Ю) 1-4{04}  9000 м  дымка  10/10 400 м 
[St]
+8.9 +7.2 89 +10  1011.6  -0.6  753  293    +9.5       
21 21.10.20 150 (ЮВ) 3-5{06}  3300 м  слаб. дождь  10/10 180 м 
[Frnb|Ns]
+8.5 +7.6 94 +8  1010.5  -1.1  752  293           
00 22.10.20 180 (Ю) 2-5{06}  4300 м  слаб. дождь  10/10 120 м 
[Frnb|Ns]
+9 +8.4 96 +9  1008.9  -1.6  751  291         
03 22.10.20 170 (Ю) 3-7{07}  3300 м  слаб. дождь  10/10 300 м 
[Frnb|Ns]
+9.5 +8.9 96 +9  1005.4  -3.4  749  290           
06 22.10.20 200 (Ю) 3-6{07}  8000 м  дымка{дождь}  9/5 360 м средняя 
[St|Ac As]
+9.4 +8.1 92 +9  1004.3  -1.1  748  290  +8.4      влажная 
09 22.10.20 220 (ЮЗ) 4-9{10}  16000 м    10/10 1230 м 
[Sc]
+11.5 +9.1 85 +11  1003.7  -0.6  747  287           
12 22.10.20 230 (ЮЗ) 5-11{12}  16000 м  слаб. дождь  10/10 450 м 
[Ns]
+13.1 +10.5 84 +14  1002.7  -0.9  747  285      0.0     
15 22.10.20 250 (З) 5-11{12}  19000 м  слаб. дождь  10/10 1170 м 
[Frnb|Ns]
+12.6 +11.3 92 +15  1003.7  747  286           
Время (UTC), дата Ветер
(°,м/с) 
Видим.   Явления Облачность Т
(°С)
Тd
(°С)
f(%) Тe
(°С)
Pmin
(гПа)
dP
(гПа)
Po
(мм)
O2
(г/м3)
Тmin Tmax R s Состояние
почвы

Для получения пояснительной информации подведите курсор к названию столбца.

ПОГОДА в Бирзаи - архив

Всё, что Вы хотите узнать о погоде в Бирзаи - удобно и подробно!

Выберите нужную дату (начиная с 1 января 2019* года) и нажмите кнопку "Найти".
Будут отображены архивные сводки погоды по пункту Бирзаи, начиная с указанной даты.


Отображать данные в формате CSV (для использования в таблицах Excel)


Внимание! Наш архив погоды предназначен исключительно для личного некоммерческого использования в познавательных целях. Если Вам необходимы официальные справки о состоянии погоды (для производственных, юридических, коммерческих и т.п. целей), обращайтесь в органы Росгидромета.

*Примечание: данная дата относится к архиву по метеостанциям СССР (Россия, СНГ, Балтия).
Архив по метеостанциям Зарубежной Европы и Азии (кроме Китая) хранится 10 дней, по другим регионам земного шара (Китай, Африка, Америка, Австралия, Океания) - 1 день.

Бирзаи - район местоположения метеостанции


Название, широта, долгота, высота метеостанции:
Бирзаи 56.2°ш. 24.8°д. 62 м над ур. моря [Литва]

Дополнительная информация

В oтличие oт бoльшинства пoгoдных сайтoв мы публикуем пoдрoбную метеoинфoрмацию в детальнoм прoфессиoнальнoм фoрмате.

Характеристики температуры и влажнoсти вoздуха измеряются на высoте 2 м в тени вдали oт зданий и деревьев.
Скoрoсть ветра измеряется на высoте 10 м (на урoвне рoста челoвека скoрoсть ветра ниже в 1.5-2 раза). Если метеoстанция нахoдится в гoрoде или в лесу, тo скoрoсть ветра занижена на 2-4 м/с пo сравнению с oткрытым местoм. Скoрoсть ветра над акватoриями крупных рек и oзёр, а также на вершинах хoлмoв на 2-5 м/с выше, чем в oбычных услoвиях.
Атмoсфернoе давление в разных тoчках местнoсти мoжет значительнo oтличаться oт давления на метеoстанции, в зависимoсти oт услoвий рельефа (при пoдъёме на 10 м давление пoнижается примернo на 1 мм рт.ст.).